Weather History for KELP - September, 2012

Change the Weather History Date:

Sunday, September 23, 2012

  Actual Average Record
Temperature  
Mean Temperature 76 °F 73 °F  
Max Temperature 90 °F 86 °F 96 °F (1982)
Min Temperature 62 °F 61 °F 42 °F (1975)
Degree Days  
Heating Degree Days 0 0  
Month to date heating degree days 6 0  
Since 1 July heating degree days 6 0  
Cooling Degree Days 11 8  
Month to date cooling degree days 276 267  
Year to date cooling degree days 2653 2196  
Growing Degree Days 27 (Base 50)    
Moisture  
Dew Point 27 °F    
Average Humidity 18    
Maximum Humidity 28    
Minimum Humidity 8    
Precipitation  
Precipitation 0.00 in 0.05 in 1.09 in (2010)
Month to date precipitation 0.58 1.24  
Year to date precipitation 5.00 7.56  
Snow  
Snow 0.00 in - - ()
Month to date snowfall 0.0  
Since 1 July snowfall 0.0  
Since 1 September snowfall 0.0  
Snow Depth 0.00 in    
Sea Level Pressure  
Sea Level Pressure 29.97 in    
Wind  
Wind Speed 3 mph (SE)    
Max Wind Speed 13 mph    
Max Gust Speed 18 mph    
Visibility 10 miles    
Events      
T = Trace of Precipitation, MM = Missing Value Source: NWS Daily Summary

Daily Weather History Graph

Daily Weather History Graph

Search for Another Location

Airport or City:

Trip Planner

Search our weather history database for the weather conditions in past years. The results will help you decide how hot, cold, wet, or windy it might be!

Date:

Astronomy

Sep. 23, 2012 Rise Set
Actual Time 6:54 AM MDT 7:00 PM MDT
Civil Twilight 6:30 AM MDT 7:24 PM MDT
Nautical Twilight 6:01 AM MDT 7:52 PM MDT
Astronomical Twilight 5:33 AM MDT 8:21 PM MDT
Moon 2:45 PM MDT (9/23) 12:29 AM MDT (9/23)
Length of Visible Light 12h 54m
Length of Day
12h 05m
First Quarter, 60% of the Moon is Illuminated
Sep 23
First Quarter
Sep 29
Full
Oct 8
Last Quarter
Oct 15
New
Oct 21
First Quarter

Hourly Weather History & Observations

Time (MDT) Temp. Dew Point Humidity Pressure Visibility Wind Dir Wind Speed Gust Speed Precip Events Conditions
12:51 AM 75.0 °F 30.0 °F 19% 29.94 in 10.0 mi SE 8.1 mph - N/A   Clear
1:51 AM 73.9 °F 30.0 °F 20% 29.95 in 10.0 mi Calm Calm - N/A   Clear
2:51 AM 73.0 °F 30.0 °F 20% 29.95 in 10.0 mi Calm Calm - N/A   Clear
3:51 AM 71.1 °F 30.0 °F 22% 29.96 in 10.0 mi Calm Calm - N/A   Clear
4:51 AM 66.0 °F 30.0 °F 26% 29.97 in 10.0 mi East 5.8 mph - N/A   Clear
5:51 AM 66.0 °F 28.9 °F 25% 29.99 in 10.0 mi NNE 4.6 mph - N/A   Clear
6:51 AM 68.0 °F 27.0 °F 21% 30.01 in 10.0 mi Calm Calm - N/A   Clear
7:51 AM 64.9 °F 30.0 °F 27% 30.06 in 10.0 mi Calm Calm - N/A   Clear
8:51 AM 73.0 °F 27.0 °F 18% 30.06 in 10.0 mi Calm Calm - N/A   Clear
9:51 AM 73.9 °F 28.9 °F 19% 30.07 in 10.0 mi Calm Calm - N/A   Clear
10:51 AM 79.0 °F 30.0 °F 17% 30.06 in 10.0 mi Variable 3.5 mph - N/A   Clear
11:51 AM 82.0 °F 30.9 °F 16% 30.03 in 10.0 mi Variable 5.8 mph - N/A   Partly Cloudy
12:51 PM 84.9 °F 28.9 °F 13% 30.01 in 10.0 mi Calm Calm - N/A   Partly Cloudy
1:51 PM 88.0 °F 28.0 °F 12% 29.97 in 10.0 mi SSW 6.9 mph - N/A   Partly Cloudy
2:51 PM 88.0 °F 25.0 °F 10% 29.94 in 10.0 mi South 4.6 mph - N/A   Partly Cloudy
3:51 PM 90.0 °F 25.0 °F 10% 29.91 in 10.0 mi Calm Calm - N/A   Partly Cloudy
4:51 PM 89.1 °F 21.9 °F 9% 29.91 in 10.0 mi Variable 3.5 mph - N/A   Partly Cloudy
5:51 PM 88.0 °F 23.0 °F 9% 29.91 in 10.0 mi SE 3.5 mph - N/A   Scattered Clouds
6:51 PM 86.0 °F 21.9 °F 10% 29.92 in 10.0 mi ESE 4.6 mph - N/A   Scattered Clouds
7:51 PM 81.0 °F 27.0 °F 14% 29.94 in 10.0 mi SE 4.6 mph - N/A   Scattered Clouds
8:51 PM 80.1 °F 24.1 °F 13% 29.95 in 10.0 mi ESE 8.1 mph - N/A   Scattered Clouds
9:51 PM 78.1 °F 25.0 °F 14% 29.96 in 10.0 mi ESE 9.2 mph - N/A   Scattered Clouds
10:51 PM 75.9 °F 24.1 °F 15% 29.96 in 10.0 mi ESE 9.2 mph - N/A   Partly Cloudy
11:51 PM 73.9 °F 25.0 °F 16% 29.96 in 10.0 mi Calm Calm - N/A   Clear